FW0710 Weather Reports


time (UTC)temp
C
wind
direction
speed
KPH
gust
KPH
rain 1hr
cm
rain 24hr
cm
rain mn
cm
humidity
%
barometer
mb
20260502190542 17 0 0.0 16.1 0.00 0.00 0.00 42 1011.5
20260502190051 17 250 0.0 16.1 0.00 0.00 0.00 43 1011.6
20260502185539 17 0 1.6 16.1 0.00 0.00 0.00 42 1011.7
20260502185039 17 0 0.0 6.4 0.00 0.00 0.00 42 1011.7
20260502184550 17 0 0.0 1.6 0.00 0.00 0.00 44 1011.6
20260502184044 17 0 0.0 8.0 0.00 0.00 0.00 41 1011.7
20260502183542 17 0 0.0 9.7 0.00 0.00 0.00 43 1011.8
20260502183049 17 0 0.0 16.1 0.00 0.00 0.00 40 1011.8
20260502182543 17 0 1.6 16.1 0.00 0.00 0.00 41 1012.0
20260502182039 18 0 0.0 6.4 0.00 0.00 0.00 44 1012.0
20260502181546 18 0 0.0 6.4 0.00 0.00 0.00 42 1012.0
20260502181041 17 0 0.0 8.0 0.00 0.00 0.00 43 1012.0
20260502180542 17 0 0.0 8.0 0.00 0.00 0.00 45 1012.2
20260502164042 15 0 0.0 6.4 0.00 0.00 0.00 45 1013.4
20260502163545 15 0 0.0 1.6 0.00 0.00 0.00 48 1013.5
20260502163052 15 0 0.0 1.6 0.00 0.00 0.00 50 1013.5
20260502162542 14 0 0.0 3.2 0.00 0.00 0.00 48 1013.5
20260502162043 14 0 0.0 3.2 0.00 0.00 0.00 45 1013.5
20260502161550 15 0 0.0 1.6 0.00 0.00 0.00 45 1013.7
20260502161041 14 0 0.0 4.8 0.00 0.00 0.00 48 1013.7
20260502160541 14 0 0.0 4.8 0.00 0.00 0.00 48 1013.8
20260502152042 12 0 0.0 3.2 0.00 0.00 0.00 55 1014.2
20260502151610 12 0 0.0 3.2 0.00 0.00 0.00 56 1014.4
20260502151041 12 0 0.0 3.2 0.00 0.00 0.00 55 1014.4
20260502150542 11 0 0.0 3.2 0.00 0.00 0.00 57 1014.6
20260502150126 11 0 0.0 3.2 0.00 0.00 0.00 55 1014.7
20260502130543 2 0 0.0 0.0 0.00 0.00 0.00 95 1015.9
20260502123542 -1 0 0.0 0.0 0.00 0.00 0.00 96 1016.4
20260502123054 -2 0 0.0 0.0 0.00 0.00 0.00 96 1016.5
20260502122543 -2 0 0.0 0.0 0.00 0.00 0.00 95 1016.4
20260502122043 -2 0 0.0 0.0 0.00 0.00 0.00 94 1016.5
20260502121604 -3 0 0.0 0.0 0.00 0.00 0.00 94 1016.4
20260502121044 -3 0 0.0 0.0 0.00 0.00 0.00 94 1016.5
20260502120544 -3 0 0.0 0.0 0.00 0.00 0.00 94 1016.5
20260502120113 -3 0 0.0 0.0 0.00 0.00 0.00 93 1016.5
20260502115545 -4 0 0.0 0.0 0.00 0.00 0.00 93 1016.5
20260502115043 -4 0 0.0 0.0 0.00 0.00 0.00 93 1016.5
20260502114622 -4 0 0.0 0.0 0.00 0.00 0.00 93 1016.5
20260502114100 -4 0 0.0 0.0 0.00 0.00 0.00 93 1016.7
20260502113543 -4 0 0.0 0.0 0.00 0.00 0.00 93 1016.7
20260502113112 -5 0 0.0 0.0 0.00 0.00 0.00 93 1016.7
20260502112542 -5 0 0.0 0.0 0.00 0.00 0.00 92 1016.7
20260502112046 -5 0 0.0 0.0 0.00 0.00 0.00 92 1016.6
20260502111555 -5 0 0.0 0.0 0.00 0.00 0.00 92 1016.7
20260502111043 -5 0 0.0 0.0 0.00 0.00 0.00 92 1016.7
20260502110546 -5 0 0.0 0.0 0.00 0.00 0.00 92 1016.8
20260502110053 -5 0 0.0 0.0 0.00 0.00 0.00 92 1016.8
20260502105543 -5 0 0.0 0.0 0.00 0.00 0.00 92 1016.9
20260502105043 -5 0 0.0 0.0 0.00 0.00 0.00 92 1017.0
20260502104550 -5 0 0.0 0.0 0.00 0.00 0.00 92 1017.1
20260502104043 -5 0 0.0 0.0 0.00 0.00 0.00 91 1017.1
20260502103543 -5 0 0.0 0.0 0.00 0.00 0.00 91 1017.2
20260502103112 -5 0 0.0 0.0 0.00 0.00 0.00 91 1017.2
20260502102542 -5 0 0.0 0.0 0.00 0.00 0.00 91 1017.3
20260502102045 -5 0 0.0 0.0 0.00 0.00 0.00 91 1017.4
20260502101553 -5 0 0.0 0.0 0.00 0.00 0.00 91 1017.4
20260502101043 -5 0 0.0 0.0 0.00 0.00 0.00 91 1017.5
20260502100547 -5 0 0.0 0.0 0.00 0.00 0.00 91 1017.5
20260502091043 -4 0 0.0 0.0 0.00 0.00 0.00 90 1017.8
20260502090543 -4 0 0.0 0.0 0.00 0.00 0.00 90 1017.7
20260502071041 -3 0 0.0 0.0 0.00 0.00 0.00 86 1018.2
20260502070543 -3 0 0.0 0.0 0.00 0.00 0.00 86 1018.5
20260502070050 -3 0 0.0 0.0 0.00 0.00 0.00 85 1018.4
20260502065542 -3 0 0.0 0.0 0.00 0.00 0.00 86 1018.4
20260502065040 -3 0 0.0 0.0 0.00 0.00 0.00 86 1018.5
20260502064554 -3 0 0.0 0.0 0.00 0.00 0.00 85 1018.6
20260502064043 -2 0 0.0 0.0 0.00 0.00 0.00 85 1018.6
20260502063543 -2 0 0.0 0.0 0.00 0.00 0.00 86 1018.7
20260502063055 -2 0 0.0 0.0 0.00 0.00 0.00 86 1018.6
20260502062543 -2 0 0.0 0.0 0.00 0.00 0.00 86 1018.5
20260502062045 -2 0 0.0 0.0 0.00 0.00 0.00 86 1018.5
20260502061555 -2 0 0.0 0.0 0.00 0.00 0.00 85 1018.6
20260502061040 -2 0 0.0 0.0 0.00 0.00 0.00 84 1018.5
20260502060542 -2 0 0.0 0.0 0.00 0.00 0.00 83 1018.6
20260502060050 -2 0 0.0 0.0 0.00 0.00 0.00 82 1018.7
20260502055543 -2 0 0.0 0.0 0.00 0.00 0.00 82 1018.6
20260502055041 -2 0 0.0 0.0 0.00 0.00 0.00 82 1018.7
20260502054607 -2 0 0.0 0.0 0.00 0.00 0.00 82 1018.6
20260502054040 -2 0 0.0 0.0 0.00 0.00 0.00 81 1018.6
20260502053541 -2 0 0.0 0.0 0.00 0.00 0.00 79 1018.7
20260502053051 -1 0 0.0 0.0 0.00 0.00 0.00 80 1018.6
20260502052540 -1 0 0.0 0.0 0.00 0.00 0.00 81 1018.7
20260502052042 -1 0 0.0 0.0 0.00 0.00 0.00 81 1018.7
20260502051551 -1 0 0.0 0.0 0.00 0.00 0.00 82 1018.7
20260502051040 -2 0 0.0 0.0 0.00 0.00 0.00 81 1018.7
20260502050545 -2 0 0.0 0.0 0.00 0.00 0.00 81 1018.7
20260502050052 -1 0 0.0 0.0 0.00 0.00 0.00 80 1018.8
20260502045545 -1 0 0.0 0.0 0.00 0.00 0.00 79 1018.7
20260502045039 -1 0 0.0 0.0 0.00 0.00 0.00 78 1018.8
20260502044549 -1 0 0.0 0.0 0.00 0.00 0.00 78 1018.8
20260502044045 -1 0 0.0 0.0 0.00 0.00 0.00 77 1018.9
20260502043542 -1 0 0.0 0.0 0.00 0.00 0.00 77 1018.8
20260502043057 0 0 0.0 0.0 0.00 0.00 0.00 76 1018.9
20260502042540 0 0 0.0 0.0 0.00 0.00 0.00 75 1018.9
20260502042040 0 0 0.0 0.0 0.00 0.00 0.00 76 1018.9
20260502041549 0 0 0.0 0.0 0.00 0.00 0.00 76 1019.0
20260502041040 0 0 0.0 0.0 0.00 0.00 0.00 77 1019.0
20260502040540 0 0 0.0 0.0 0.00 0.00 0.00 75 1019.1
20260502040052 0 0 0.0 0.0 0.00 0.00 0.00 75 1019.1
20260502035540 0 0 0.0 0.0 0.00 0.00 0.00 75 1019.0
20260502035040 0 0 0.0 0.0 0.00 0.00 0.00 74 1019.0
20260502034551 0 0 0.0 0.0 0.00 0.00 0.00 72 1019.1
20260502034040 0 0 0.0 0.0 0.00 0.00 0.00 72 1019.1
20260502033539 0 0 0.0 0.0 0.00 0.00 0.00 70 1019.1
20260502033049 1 0 0.0 0.0 0.00 0.00 0.00 69 1019.1
20260502032539 1 0 0.0 0.0 0.00 0.00 0.00 70 1019.1
20260502032041 1 0 0.0 0.0 0.00 0.00 0.00 68 1019.0
20260502031548 1 0 0.0 0.0 0.00 0.00 0.00 67 1019.1
20260502031041 2 0 0.0 0.0 0.00 0.00 0.00 66 1019.0
20260502030543 2 0 0.0 0.0 0.00 0.00 0.00 65 1019.1
20260502030103 3 0 0.0 0.0 0.00 0.00 0.00 62 1019.0
20260502025542 3 0 0.0 0.0 0.00 0.00 0.00 61 1019.1
20260502025042 4 0 0.0 0.0 0.00 0.00 0.00 59 1019.1
20260502024547 5 0 0.0 0.0 0.00 0.00 0.00 57 1019.1
20260502024042 5 0 0.0 0.0 0.00 0.00 0.00 54 1019.1
20260502023545 5 0 0.0 0.0 0.00 0.00 0.00 54 1019.1
20260502023049 6 0 0.0 0.0 0.00 0.00 0.00 51 1019.0
20260502022542 6 0 0.0 0.0 0.00 0.00 0.00 51 1019.1
20260502022042 6 0 0.0 0.0 0.00 0.00 0.00 50 1019.0
20260502021555 7 0 0.0 0.0 0.00 0.00 0.00 49 1018.9
20260502021042 7 0 0.0 0.0 0.00 0.00 0.00 47 1018.9
20260502020543 7 0 0.0 0.0 0.00 0.00 0.00 47 1018.8
20260502020051 7 0 0.0 0.0 0.00 0.00 0.00 47 1018.8
20260502015545 7 0 0.0 0.0 0.00 0.00 0.00 47 1018.7
20260502015043 7 0 0.0 0.0 0.00 0.00 0.00 47 1018.7
20260502014550 7 0 0.0 0.0 0.00 0.00 0.00 47 1018.5
20260502014042 7 0 0.0 0.0 0.00 0.00 0.00 47 1018.6
20260502013542 7 0 0.0 0.0 0.00 0.00 0.00 47 1018.6
20260502013056 8 0 0.0 0.0 0.00 0.00 0.00 46 1018.7
20260502012545 8 0 0.0 0.0 0.00 0.00 0.00 46 1018.7
20260502012042 8 0 0.0 0.0 0.00 0.00 0.00 47 1018.7
20260502011549 8 0 0.0 0.0 0.00 0.00 0.00 46 1018.7
20260502011044 8 0 0.0 0.0 0.00 0.00 0.00 44 1018.7
20260502010542 9 0 0.0 1.6 0.00 0.00 0.00 44 1018.7
20260502010054 9 0 0.0 1.6 0.00 0.00 0.00 43 1018.7
20260502005542 10 0 0.0 1.6 0.00 0.00 0.00 42 1018.7
20260502005042 10 0 0.0 1.6 0.00 0.00 0.00 43 1018.8
20260502004549 10 0 0.0 0.0 0.00 0.00 0.00 43 1018.8
20260502004043 10 0 0.0 8.0 0.00 0.00 0.00 41 1018.7
20260502003544 10 0 0.0 8.0 0.00 0.00 0.00 41 1018.7
20260502003049 10 0 0.0 1.6 0.00 0.00 0.00 42 1018.7
20260502002542 10 0 0.0 1.6 0.00 0.00 0.00 39 1018.7
20260502002042 10 0 0.0 1.6 0.00 0.00 0.00 39 1018.7
20260502001549 10 0 0.0 6.4 0.00 0.00 0.00 40 1018.6
20260502001042 11 0 0.0 6.4 0.00 0.00 0.00 41 1018.6
20260502000542 11 0 0.0 6.4 0.00 0.00 0.00 41 1018.5
20260502000050 11 0 0.0 9.7 0.00 0.00 0.00 40 1018.5
20260501235543 11 0 0.0 9.7 0.00 0.00 0.00 40 1018.4
20260501235039 11 304 0.0 9.7 0.00 0.00 0.00 40 1018.4
20260501234551 11 0 0.0 8.0 0.00 0.00 0.00 40 1018.4
20260501234042 11 0 0.0 6.4 0.00 0.00 0.00 39 1018.5
20260501233542 11 0 0.0 4.8 0.00 0.00 0.00 41 1018.5
20260501233055 11 0 0.0 0.0 0.00 0.00 0.00 39 1018.4
20260501232542 11 0 0.0 8.0 0.00 0.00 0.00 38 1018.4
20260501232039 11 0 0.0 9.7 0.00 0.00 0.00 39 1018.4
20260501231545 11 0 0.0 9.7 0.00 0.00 0.00 38 1018.5
20260501231043 11 0 1.6 12.9 0.00 0.00 0.00 39 1018.4
20260501230542 11 0 1.6 12.9 0.00 0.00 0.00 40 1018.4
20260501230049 11 0 0.0 3.2 0.00 0.00 0.00 39 1018.4
20260501225542 11 0 0.0 4.8 0.00 0.00 0.00 41 1018.3
20260501225042 11 0 0.0 4.8 0.00 0.00 0.00 41 1018.4
20260501224552 11 0 0.0 4.8 0.00 0.00 0.00 39 1018.3
20260501224042 11 0 0.0 0.0 0.00 0.00 0.00 38 1018.4
20260501223542 11 0 0.0 11.3 0.00 0.00 0.00 40 1018.4
20260501223057 11 0 0.0 11.3 0.00 0.00 0.00 38 1018.4
20260501222546 11 0 0.0 6.4 0.00 0.00 0.00 39 1018.5
20260501222044 11 0 0.0 14.5 0.00 0.00 0.00 42 1018.4
20260501221545 11 0 0.0 14.5 0.00 0.00 0.00 40 1018.6
20260501221042 11 0 1.6 14.5 0.00 0.00 0.00 42 1018.5
20260501220542 11 0 0.0 1.6 0.00 0.00 0.00 43 1018.6
20260501220054 11 0 0.0 8.0 0.00 0.00 0.00 40 1018.6
20260501215546 11 0 0.0 8.0 0.00 0.00 0.00 42 1018.7
20260501215046 11 0 0.0 6.4 0.00 0.00 0.00 40 1018.7
20260501214557 11 0 0.0 6.4 0.00 0.00 0.00 41 1018.7
20260501214042 11 0 0.0 12.9 0.00 0.00 0.00 40 1018.7
20260501213541 11 0 0.0 22.5 0.00 0.00 0.00 43 1018.8
20260501213100 11 0 1.6 22.5 0.00 0.00 0.00 43 1018.9
20260501212543 11 0 0.0 9.7 0.00 0.00 0.00 43 1018.9
20260501212043 11 0 0.0 16.1 0.00 0.00 0.00 44 1018.9
20260501211558 11 0 0.0 16.1 0.00 0.00 0.00 42 1018.8
20260501211042 11 352 0.0 16.1 0.00 0.00 0.00 42 1018.9
20260501210545 11 347 1.6 16.1 0.00 0.00 0.00 43 1018.9
20260501210052 11 337 4.8 14.5 0.00 0.00 0.00 43 1019.0
20260501205543 11 0 0.0 6.4 0.00 0.00 0.00 43 1019.0
20260501205047 11 0 0.0 6.4 0.00 0.00 0.00 40 1019.0
20260501204607 11 0 0.0 17.7 0.00 0.00 0.00 44 1019.0
20260501204045 10 0 1.6 17.7 0.00 0.00 0.00 43 1019.1
20260501203542 10 344 1.6 17.7 0.00 0.00 0.00 43 1019.1
20260501203100 10 0 0.0 22.5 0.00 0.00 0.00 43 1019.0
20260501202543 10 0 0.0 22.5 0.00 0.00 0.00 44 1019.1
20260501202043 11 0 1.6 22.5 0.00 0.00 0.00 41 1019.2
20260501201549 10 333 0.0 8.0 0.00 0.00 0.00 44 1019.2
20260501201042 10 272 0.0 4.8 0.00 0.00 0.00 42 1019.2
20260501200542 10 0 0.0 4.8 0.00 0.00 0.00 44 1019.4
20260501200049 10 0 0.0 16.1 0.00 0.00 0.00 44 1019.3
20260501195542 10 0 0.0 16.1 0.00 0.00 0.00 42 1019.3
20260501195045 10 0 0.0 12.9 0.00 0.00 0.00 46 1019.3
20260501194551 9 0 0.0 16.1 0.00 0.00 0.00 44 1019.3
20260501194043 9 0 0.0 16.1 0.00 0.00 0.00 44 1019.3
20260501193546 9 9 0.0 1.6 0.00 0.00 0.00 44 1019.2
20260501193049 9 0 0.0 12.9 0.00 0.00 0.00 46 1019.4
20260501192542 9 0 0.0 12.9 0.00 0.00 0.00 43 1019.5
20260501192042 10 0 0.0 12.9 0.00 0.00 0.00 43 1019.5
20260501191550 10 0 0.0 12.9 0.00 0.00 0.00 45 1019.5
20260501191042 10 0 1.6 12.9 0.00 0.00 0.00 46 1019.4